Regional Weather Roundup
Issued by NWS

Home | Current Version | Previous Version | Graphics & Text | Print | Product List | Glossary On
Versions: 1 2 3 4 5 6 7 8 9 10 11 12 13 14 15 16 17 18 19 20 21 22 23 24 25 26 27 28 29 30 31 32 33 34 35 36 37 38 39 40 41 42 43 44 45 46 47 48 49 50
000
ASUS43 KOAX 290810
RWRNE

WEATHER ROUNDUP FOR NEBRASKA
NATIONAL WEATHER SERVICE OMAHA NE
200 AM CST THU JAN 29 2015

NOTES: SATELLITE DATA IS BEING USED TO AUGMENT CLOUD COVER ABOVE
       12000 FEET.
       "FAIR" INDICATES FEW OR NO CLOUDS BELOW 12,000 FEET WITH NO
       SIGNIFICANT WEATHER AND/OR OBSTRUCTIONS TO VISIBILITY.

  * THESE STATIONS DO NOT REPORT WEATHER SUCH AS RAIN...SNOW OR FOG.

NEZ001>004-019>022-054>056-290900-
NEBRASKA PANHANDLE

CITY           SKY/WX    TMP DP  RH WIND       PRES   REMARKS
SCOTTSBLUFF    MOCLDY    36  26  67 NW13      30.35R WCI  27
ALLIANCE       CLEAR     28  25  88 NW8       30.34R WCI  20
CHADRON        MOCLDY    27  25  92 NW3       30.38R
KIMBALL        CLOUDY    36  23  58 NW13G21   30.32R WCI  27
SIDNEY         PTCLDY    31  26  82 N7        30.33R WCI  24
$$

NEZ057>060-069>072-079>082-290900-
SOUTHWEST NEBRASKA

CITY           SKY/WX    TMP DP  RH WIND       PRES   REMARKS
NORTH PLATTE   PTCLDY    35  27  72 N18       30.27R WCI  24
IMPERIAL       CLEAR     33  27  78 N13       30.29R WCI  24
LEXINGTON      CLOUDY    38  31  76 N26G38    30.24R WCI  26
MCCOOK         CLEAR     37  30  75 N16G23    30.27R WCI  28
OGALLALA       CLEAR     30  27  88 NW6       30.30R WCI  24
$$

NEZ005>010-023>029-035>040-094-290900-
NORTH CENTRAL NEBRASKA

CITY           SKY/WX    TMP DP  RH WIND       PRES   REMARKS
VALENTINE      CLOUDY    35  26  69 NW14      30.29R WCI  26
AINSWORTH      CLOUDY    35  27  73 NW24G33   30.26R WCI  22
BROKEN BOW     CLOUDY    38  28  67 N29G39    30.22R WCI  26
O`NEILL        CLOUDY    36  31  82 NW24G35   30.21R WCI  24
ORD            CLOUDY    36  29  75 N25G33    30.21R WCI  24
THEDFORD       CLOUDY    36  28  72 N21G31    30.28R WCI  24
$$

NEZ041-046>049-061>064-073>077-083>087-290900-
SOUTH CENTRAL NEBRASKA

CITY           SKY/WX    TMP DP  RH WIND       PRES   REMARKS
GRAND ISLAND   CLOUDY    37  29  72 NW30G40   30.19R WCI  24
AURORA         CLOUDY    37  30  75 N26G35    30.17R WCI  26
HASTINGS       CLOUDY    38  29  70 N28G39    30.17R WCI  26
HEBRON         CLOUDY    39  29  67 N22G32    30.14R WCI  29
HOLDREGE       CLOUDY    38  30  72 N25G39    30.23R WCI  27
KEARNEY *      CLOUDY    37  28  70 N25G33    30.22R WCI  26
YORK           CLOUDY    37  30  75 N23G38    30.14R WCI  26
$$

NEZ011>018-030>034-042>045-290900-
NORTHEAST NEBRASKA

CITY           SKY/WX    TMP DP  RH WIND       PRES   REMARKS
NORFOLK        CLOUDY    36  28  73 N25G36    30.13R WCI  24
ALBION         CLOUDY    36  28  74 NW21G32   30.16R WCI  25
BLAIR          CLOUDY    37  31  77 NW21G30   30.05R WCI  26
COLUMBUS *     CLOUDY    36  25  64 NW29G37   30.13R WCI  23
FREMONT        CLOUDY    37  30  77 NW24G39   30.11R WCI  25
TEKAMAH        CLOUDY    38  29  70 N24G38    30.06R WCI  27
WAYNE          CLOUDY    34  28  79 N25G36    30.11R WCI  21
$$

NEZ050>053-065>068-078-088>093-290900-
SOUTHEAST NEBRASKA

CITY           SKY/WX    TMP DP  RH WIND       PRES   REMARKS
LINCOLN        CLOUDY    38  30  73 N25G37    30.11R WCI  27
OMAHA EPPLEY   CLOUDY    38  29  70 NW26G47   30.02R WCI  26
BEATRICE       CLOUDY    38  31  77 N36G43    30.12R WCI  24
FALLS CITY     CLOUDY    42  34  73 NW30G44   30.02R
NEBRASKA CITY  CLOUDY    37  30  74 N29G44    30.03R WCI  25
PLATTSMOUTH    CLOUDY    37  31  78 NW22G40   30.04R WCI  26
$$

NEZ044-045-051>053-067-290900-
OMAHA AREA

CITY           SKY/WX    TMP DP  RH WIND       PRES   REMARKS
OMAHA EPPLEY   CLOUDY    38  29  70 NW26G47   30.02R WCI  26
BLAIR          CLOUDY    37  31  77 NW21G30   30.05R WCI  26
FREMONT        CLOUDY    37  30  77 NW24G39   30.11R WCI  25
MILLARD        CLOUDY    38  32  77 NW16G24   30.06R WCI  29
OFFUTT AFB     CLOUDY    38  29  71 NW25G44   30.03R WCI  27
PLATTSMOUTH    CLOUDY    37  31  78 NW22G40   30.04R WCI  26
WAHOO          CLOUDY    37  29  74 NW30G40   30.09R WCI  24
$$


USA.gov is the U.S. government's official web portal to all federal, state and local government web resources and services.